Location: M?digepalle
(16.1753°N, 80.3496°E)
Time: 08:58:20
(UTC+00:00)

Palapa 6 Rocket - Pass Details

Date: 29 October 2020
Orbit: 485 x 1217 km, 22.7° (Epoch: 27 November)

Event Time Altitude Azimuth Distance (km) Brightness Sun altitude
Exits shadow 23:32:40 23° 320° (NW) 1,074 3.9 -15.5°
Maximum altitude 23:34:05 30° 359° (N) 909 3.8 -15.2°
Drops below altitude 10° 23:37:41 10° 62° (ENE) 1,787 6.2 -14.3°
Sets 23:40:18 0° 73° (ENE) 2,773 7.6 -13.7°
